| time (UTC) | temp F | wind direction | speed MPH | gust MPH | rain 1hr in | rain 24hr in | rain mn in | humidity % | barometer mb |
| 20260903050028 | 66 | 67 | 0.0 | 0.0 | 0.00 | 0.00 | 0.00 | 71 | 1005.9 |
| 20260903044523 | 66 | 41 | 0.0 | 0.0 | 0.00 | 0.00 | 0.00 | 71 | 1006.0 |
| 20260903043023 | 66 | 108 | 0.0 | 0.0 | 0.00 | 0.00 | 0.00 | 71 | 1006.0 |
| 20260903041520 | 66 | 76 | 0.0 | 0.0 | 0.00 | 0.00 | 0.00 | 70 | 1006.1 |
| 20260903040019 | 67 | 101 | 0.0 | 0.0 | 0.00 | 0.00 | 0.00 | 70 | 1006.1 |
| 20260903034515 | 66 | 113 | 0.0 | 0.0 | 0.00 | 0.00 | 0.00 | 70 | 1006.1 |
| 20260903033021 | 67 | 79 | 0.0 | 0.0 | 0.00 | 0.00 | 0.00 | 68 | 1006.3 |
| 20260903031516 | 68 | 148 | 0.0 | 0.0 | 0.00 | 0.00 | 0.00 | 67 | 1006.3 |
| 20260903030010 | 68 | 71 | 0.0 | 0.0 | 0.00 | 0.00 | 0.00 | 67 | 1006.2 |
| 20260903024505 | 68 | 135 | 0.0 | 0.0 | 0.00 | 0.00 | 0.00 | 66 | 1006.5 |
| 20260903023003 | 68 | 113 | 0.0 | 0.0 | 0.00 | 0.00 | 0.00 | 65 | 1006.5 |
| 20260903021504 | 69 | 113 | 0.0 | 0.0 | 0.00 | 0.00 | 0.00 | 63 | 1006.6 |
| 20260903020001 | 70 | 107 | 0.0 | 0.0 | 0.00 | 0.00 | 0.00 | 62 | 1006.5 |
| 20260903014609 | 71 | 110 | 0.0 | 0.0 | 0.00 | 0.00 | 0.00 | 60 | 1006.1 |
| 20260903013056 | 72 | 79 | 0.0 | 0.0 | 0.00 | 0.00 | 0.00 | 58 | 1006.0 |
| 20260903011556 | 73 | 102 | 0.0 | 0.0 | 0.00 | 0.00 | 0.00 | 57 | 1005.8 |
| 20260903010054 | 75 | 78 | 0.0 | 0.0 | 0.00 | 0.00 | 0.00 | 57 | 1006.1 |
| 20260903004552 | 76 | 82 | 0.0 | 0.0 | 0.00 | 0.00 | 0.00 | 55 | 1006.0 |
| 20260903003052 | 77 | 124 | 0.0 | 1.0 | 0.00 | 0.00 | 0.00 | 54 | 1006.1 |
| 20260903001553 | 78 | 77 | 0.0 | 0.0 | 0.00 | 0.00 | 0.00 | 53 | 1006.1 |
| 20260903000052 | 80 | 112 | 0.0 | 0.0 | 0.00 | 0.00 | 0.00 | 52 | 1006.2 |
| 20260902234549 | 80 | 133 | 0.0 | 0.0 | 0.00 | 0.00 | 0.00 | 52 | 1006.1 |
| 20260902233048 | 81 | 136 | 0.0 | 0.0 | 0.00 | 0.00 | 0.00 | 51 | 1006.1 |
| 20260902231547 | 82 | 139 | 0.0 | 0.0 | 0.00 | 0.00 | 0.00 | 49 | 1006.3 |
| 20260902230045 | 82 | 129 | 0.0 | 0.0 | 0.00 | 0.00 | 0.00 | 51 | 1006.3 |
| 20260902224546 | 81 | 116 | 0.0 | 1.0 | 0.00 | 0.00 | 0.00 | 52 | 1006.4 |
| 20260902223040 | 80 | 85 | 0.0 | 0.0 | 0.00 | 0.00 | 0.00 | 52 | 1006.4 |
| 20260902221539 | 81 | 101 | 0.0 | 1.0 | 0.00 | 0.00 | 0.00 | 51 | 1006.4 |
| 20260902220038 | 80 | 105 | 0.0 | 0.0 | 0.00 | 0.00 | 0.00 | 52 | 1006.6 |
| 20260902214537 | 81 | 124 | 0.0 | 0.0 | 0.00 | 0.00 | 0.00 | 50 | 1006.8 |
| 20260902213033 | 81 | 140 | 0.0 | 0.0 | 0.00 | 0.00 | 0.00 | 49 | 1007.0 |
| 20260902211531 | 81 | 115 | 0.0 | 1.0 | 0.00 | 0.00 | 0.00 | 49 | 1007.0 |
| 20260902210046 | 81 | 167 | 0.0 | 1.0 | 0.00 | 0.00 | 0.00 | 49 | 1007.2 |
| 20260902204524 | 82 | 128 | 0.0 | 1.0 | 0.00 | 0.00 | 0.00 | 49 | 1007.3 |
| 20260902203021 | 81 | 103 | 0.0 | 3.0 | 0.00 | 0.00 | 0.00 | 47 | 1007.5 |
| 20260902201522 | 81 | 132 | 0.0 | 0.0 | 0.00 | 0.00 | 0.00 | 48 | 1007.8 |
| 20260902200024 | 80 | 131 | 0.0 | 0.0 | 0.00 | 0.00 | 0.00 | 48 | 1008.0 |
| 20260902194519 | 82 | 134 | 0.0 | 1.0 | 0.00 | 0.00 | 0.00 | 46 | 1008.0 |
| 20260902193046 | 81 | 166 | 0.0 | 1.0 | 0.00 | 0.00 | 0.00 | 46 | 1008.1 |
| 20260902191543 | 81 | 158 | 0.0 | 0.0 | 0.00 | 0.00 | 0.00 | 48 | 1008.2 |
| 20260902190037 | 80 | 150 | 0.0 | 1.0 | 0.00 | 0.00 | 0.00 | 48 | 1008.5 |
| 20260902184536 | 81 | 139 | 0.0 | 0.0 | 0.00 | 0.00 | 0.00 | 46 | 1008.7 |
| 20260902183032 | 80 | 115 | 0.0 | 0.0 | 0.00 | 0.00 | 0.00 | 47 | 1009.1 |
| 20260902181531 | 80 | 145 | 0.0 | 0.0 | 0.00 | 0.00 | 0.00 | 47 | 1009.3 |
| 20260902180025 | 79 | 63 | 0.0 | 0.0 | 0.00 | 0.00 | 0.00 | 47 | 1009.3 |
| 20260902174522 | 78 | 115 | 0.0 | 1.0 | 0.00 | 0.00 | 0.00 | 48 | 1009.5 |
| 20260902173019 | 78 | 195 | 0.0 | 1.0 | 0.00 | 0.00 | 0.00 | 49 | 1009.6 |
| 20260902171521 | 77 | 121 | 0.0 | 0.0 | 0.00 | 0.00 | 0.00 | 51 | 1009.8 |
| 20260902170011 | 76 | 84 | 0.0 | 1.0 | 0.00 | 0.00 | 0.00 | 55 | 1009.9 |
| 20260902164515 | 75 | 103 | 0.0 | 0.0 | 0.00 | 0.00 | 0.00 | 53 | 1009.9 |
| 20260902163005 | 75 | 182 | 0.0 | 0.0 | 0.00 | 0.00 | 0.00 | 57 | 1010.0 |
| 20260902161503 | 74 | 148 | 0.0 | 0.0 | 0.00 | 0.00 | 0.00 | 57 | 1010.0 |
| 20260902160030 | 73 | 149 | 0.0 | 1.0 | 0.00 | 0.00 | 0.00 | 59 | 1010.0 |
| 20260902154529 | 73 | 141 | 0.0 | 0.0 | 0.00 | 0.00 | 0.00 | 62 | 1010.1 |
| 20260902153028 | 73 | 121 | 0.0 | 0.0 | 0.00 | 0.00 | 0.00 | 62 | 1010.1 |
| 20260902151522 | 72 | 132 | 0.0 | 0.0 | 0.00 | 0.00 | 0.00 | 64 | 1010.1 |
| 20260902150018 | 70 | 151 | 0.0 | 1.0 | 0.00 | 0.00 | 0.00 | 67 | 1010.2 |
| 20260902144530 | 69 | 145 | 0.0 | 0.0 | 0.00 | 0.00 | 0.00 | 71 | 1010.3 |
| 20260902143009 | 68 | 158 | 0.0 | 0.0 | 0.00 | 0.00 | 0.00 | 71 | 1010.6 |
| 20260902141505 | 67 | 122 | 0.0 | 0.0 | 0.00 | 0.00 | 0.00 | 73 | 1010.5 |
| 20260902140001 | 64 | 139 | 0.0 | 0.0 | 0.00 | 0.00 | 0.00 | 85 | 1010.5 |
| 20260902134606 | 61 | 345 | 0.0 | 0.0 | 0.00 | 0.00 | 0.00 | 85 | 1010.6 |
| 20260902133025 | 59 | 345 | 0.0 | 0.0 | 0.00 | 0.00 | 0.00 | 89 | 1010.7 |
| 20260902131540 | 57 | 10 | 0.0 | 0.0 | 0.00 | 0.00 | 0.00 | 92 | 1010.6 |
| 20260902130053 | 0 | 0.0 | 0.0 | 0.00 | 0.00 | 0.00 | 1010.6 | ||
| 20260902124548 | 0 | 0.0 | 0.0 | 0.00 | 0.00 | 0.00 | 1010.6 | ||
| 20260902123016 | 0 | 0.0 | 0.0 | 0.00 | 0.00 | 0.00 | 1010.5 | ||
| 20260902121509 | 0 | 0.0 | 0.0 | 0.00 | 0.00 | 0.00 | 1010.6 | ||
| 20260902120000 | 0 | 0.0 | 0.0 | 0.00 | 0.00 | 0.00 | 1010.5 | ||
| 20260902114604 | 0 | 0.0 | 0.0 | 0.00 | 0.00 | 0.00 | 1010.3 | ||
| 20260902113057 | 0 | 0.0 | 0.0 | 0.00 | 0.00 | 0.00 | 1010.2 | ||
| 20260902111547 | 0 | 0.0 | 0.0 | 0.00 | 0.00 | 0.00 | 1010.3 | ||
| 20260902110013 | 0 | 0.0 | 0.0 | 0.00 | 0.00 | 0.00 | 1010.3 | ||
| 20260902104515 | 0 | 0.0 | 0.0 | 0.00 | 0.00 | 0.00 | 1010.4 | ||
| 20260902103039 | 0 | 0.0 | 0.0 | 0.00 | 0.00 | 0.00 | 1010.6 | ||
| 20260902101532 | 47 | 98 | 0.0 | 0.0 | 0.00 | 0.00 | 0.00 | 94 | 1010.5 |
| 20260902100027 | 48 | 110 | 0.0 | 0.0 | 0.00 | 0.00 | 0.00 | 93 | 1010.7 |
| 20260902094529 | 49 | 110 | 0.0 | 0.0 | 0.00 | 0.00 | 0.00 | 95 | 1010.6 |
| 20260902093025 | 49 | 110 | 0.0 | 0.0 | 0.00 | 0.00 | 0.00 | 94 | 1010.7 |
| 20260902091554 | 50 | 110 | 0.0 | 0.0 | 0.00 | 0.00 | 0.00 | 94 | 1010.8 |
| 20260902090023 | 50 | 110 | 0.0 | 0.0 | 0.00 | 0.00 | 0.00 | 95 | 1010.9 |
| 20260902084522 | 50 | 110 | 0.0 | 0.0 | 0.00 | 0.00 | 0.00 | 95 | 1010.9 |
| 20260902083021 | 49 | 110 | 0.0 | 0.0 | 0.00 | 0.00 | 0.00 | 96 | 1011.0 |
| 20260902081619 | 48 | 110 | 0.0 | 0.0 | 0.00 | 0.00 | 0.00 | 94 | 1011.0 |
| 20260902080017 | 48 | 110 | 0.0 | 0.0 | 0.00 | 0.00 | 0.00 | 94 | 1010.9 |
| 20260902074516 | 49 | 110 | 0.0 | 0.0 | 0.00 | 0.00 | 0.00 | 93 | 1010.8 |
| 20260902073015 | 49 | 110 | 0.0 | 0.0 | 0.00 | 0.00 | 0.00 | 94 | 1010.8 |
| 20260902071536 | 49 | 110 | 0.0 | 0.0 | 0.00 | 0.00 | 0.00 | 93 | 1010.9 |
| 20260902070013 | 49 | 110 | 0.0 | 0.0 | 0.00 | 0.00 | 0.00 | 95 | 1010.8 |
| 20260902064510 | 48 | 110 | 0.0 | 0.0 | 0.00 | 0.00 | 0.00 | 93 | 1010.7 |
| 20260902063009 | 49 | 110 | 0.0 | 0.0 | 0.00 | 0.00 | 0.00 | 94 | 1010.7 |
| 20260902061509 | 49 | 110 | 0.0 | 0.0 | 0.00 | 0.00 | 0.00 | 90 | 1010.8 |
| 20260902060009 | 51 | 110 | 0.0 | 0.0 | 0.00 | 0.00 | 0.00 | 93 | 1010.8 |
| 20260902054542 | 51 | 110 | 0.0 | 0.0 | 0.00 | 0.00 | 0.00 | 93 | 1010.8 |
| 20260902053033 | 51 | 110 | 0.0 | 0.0 | 0.00 | 0.00 | 0.00 | 93 | 1010.7 |
| 20260902051501 | 51 | 110 | 0.0 | 0.0 | 0.00 | 0.00 | 0.00 | 93 | 1010.9 |